Location: Codford Saint Peter
(51.1597°N, 2.0531°W)
Time: 05:18:55
(UTC+00:00)

Cosmos 1125 Rocket - Pass Details

Date: 18 September 2020
Orbit: 757 x 780 km, 74.0° (Epoch: 20 October)

Event Time Altitude Azimuth Distance (km) Brightness Sun altitude
Rises 20:38:36 0° 200° (SSW) 3,247 6.6 -22.1°
Reaches altitude 10° 20:40:58 10° 199° (SSW) 2,325 5.8 -22.4°
Maximum altitude 20:46:16 83° 112° (ESE) 793 3.4 -23.1°
Drops below altitude 10° 20:51:36 10° 26° (NNE) 2,345 6.1 -23.8°
Sets 20:54:00 0° 26° (NNE) 3,277 6.9 -24.1°
